Year,Month,Day,Hour,Minute,Value (Times are PST for insolation in W/m^2)
2006,09,11,00,00,0.00
2006,09,11,00,01,0.00
2006,09,11,00,02,0.00
2006,09,11,00,03,0.00
2006,09,11,00,04,0.00
2006,09,11,00,05,0.00
2006,09,11,00,06,0.00
2006,09,11,00,07,0.00
2006,09,11,00,08,0.00
2006,09,11,00,09,0.00
2006,09,11,00,10,0.00
2006,09,11,00,11,0.00
2006,09,11,00,12,0.00
2006,09,11,00,13,0.00
2006,09,11,00,14,0.00
2006,09,11,00,15,0.00
2006,09,11,00,16,0.00
2006,09,11,00,17,0.00
2006,09,11,00,18,0.00
2006,09,11,00,19,0.00
2006,09,11,00,20,0.00
2006,09,11,00,21,0.00
2006,09,11,00,22,0.00
2006,09,11,00,23,0.00
2006,09,11,00,24,0.00
2006,09,11,00,25,0.00
2006,09,11,00,26,0.00
2006,09,11,00,27,0.00
2006,09,11,00,28,0.00
2006,09,11,00,29,0.00
2006,09,11,00,30,0.00
2006,09,11,00,31,0.00
2006,09,11,00,32,0.00
2006,09,11,00,33,0.00
2006,09,11,00,34,0.00
2006,09,11,00,35,0.00
2006,09,11,00,36,0.00
2006,09,11,00,37,0.00
2006,09,11,00,38,0.00
2006,09,11,00,39,0.00
2006,09,11,00,40,0.00
2006,09,11,00,41,0.00
2006,09,11,00,42,0.00
2006,09,11,00,43,0.00
2006,09,11,00,44,0.00
2006,09,11,00,45,0.00
2006,09,11,00,46,0.00
2006,09,11,00,47,0.00
2006,09,11,00,48,0.00
2006,09,11,00,49,0.00
2006,09,11,00,50,0.00
2006,09,11,00,51,0.00
2006,09,11,00,52,0.00
2006,09,11,00,53,0.00
2006,09,11,00,54,0.00
2006,09,11,00,55,0.00
2006,09,11,00,56,0.00
2006,09,11,00,57,0.00
2006,09,11,00,58,0.00
2006,09,11,00,59,0.00
2006,09,11,01,00,0.00
2006,09,11,01,01,0.00
2006,09,11,01,02,0.00
2006,09,11,01,03,0.00
2006,09,11,01,04,0.00
2006,09,11,01,05,0.00
2006,09,11,01,06,0.00
2006,09,11,01,07,0.00
2006,09,11,01,08,0.00
2006,09,11,01,09,0.00
2006,09,11,01,10,0.00
2006,09,11,01,11,0.00
2006,09,11,01,12,0.00
2006,09,11,01,13,0.00
2006,09,11,01,14,0.00
2006,09,11,01,15,0.00
2006,09,11,01,16,0.00
2006,09,11,01,17,0.00
2006,09,11,01,18,0.00
2006,09,11,01,19,0.00
2006,09,11,01,20,0.00
2006,09,11,01,21,0.00
2006,09,11,01,22,0.00
2006,09,11,01,23,0.00
2006,09,11,01,24,0.00
2006,09,11,01,25,0.00
2006,09,11,01,26,0.00
2006,09,11,01,27,0.00
2006,09,11,01,28,0.00
2006,09,11,01,29,0.00
2006,09,11,01,30,0.00
2006,09,11,01,31,0.00
2006,09,11,01,32,0.00
2006,09,11,01,33,0.00
2006,09,11,01,34,0.00
2006,09,11,01,35,0.00
2006,09,11,01,36,0.00
2006,09,11,01,37,0.00
2006,09,11,01,38,0.00
2006,09,11,01,39,0.00
2006,09,11,01,40,0.00
2006,09,11,01,41,0.00
2006,09,11,01,42,0.00
2006,09,11,01,43,0.00
2006,09,11,01,44,0.00
2006,09,11,01,45,0.00
2006,09,11,01,46,0.00
2006,09,11,01,47,0.00
2006,09,11,01,48,0.00
2006,09,11,01,49,0.00
2006,09,11,01,50,0.00
2006,09,11,01,51,0.00
2006,09,11,01,52,0.00
2006,09,11,01,53,0.00
2006,09,11,01,54,0.00
2006,09,11,01,55,0.00
2006,09,11,01,56,0.00
2006,09,11,01,57,0.00
2006,09,11,01,58,0.00
2006,09,11,01,59,0.00
2006,09,11,02,00,0.00
2006,09,11,02,01,0.00
2006,09,11,02,02,0.00
2006,09,11,02,03,0.00
2006,09,11,02,04,0.00
2006,09,11,02,05,0.00
2006,09,11,02,06,0.00
2006,09,11,02,07,0.00
2006,09,11,02,08,0.00
2006,09,11,02,09,0.00
2006,09,11,02,10,0.00
2006,09,11,02,11,0.00
2006,09,11,02,12,0.00
2006,09,11,02,13,0.00
2006,09,11,02,14,0.00
2006,09,11,02,15,0.00
2006,09,11,02,16,0.00
2006,09,11,02,17,0.00
2006,09,11,02,18,0.00
2006,09,11,02,19,0.00
2006,09,11,02,20,0.00
2006,09,11,02,21,0.00
2006,09,11,02,22,0.00
2006,09,11,02,23,0.00
2006,09,11,02,24,0.00
2006,09,11,02,25,0.00
2006,09,11,02,26,0.00
2006,09,11,02,27,0.00
2006,09,11,02,28,0.00
2006,09,11,02,29,0.00
2006,09,11,02,30,0.00
2006,09,11,02,31,0.00
2006,09,11,02,32,0.00
2006,09,11,02,33,0.00
2006,09,11,02,34,0.00
2006,09,11,02,35,0.00
2006,09,11,02,36,0.00
2006,09,11,02,37,0.00
2006,09,11,02,38,0.00
2006,09,11,02,39,0.00
2006,09,11,02,40,0.00
2006,09,11,02,41,0.00
2006,09,11,02,42,0.00
2006,09,11,02,43,0.00
2006,09,11,02,44,0.00
2006,09,11,02,45,0.00
2006,09,11,02,46,0.00
2006,09,11,02,47,0.00
2006,09,11,02,48,0.00
2006,09,11,02,49,0.00
2006,09,11,02,50,0.00
2006,09,11,02,51,0.00
2006,09,11,02,52,0.00
2006,09,11,02,53,0.00
2006,09,11,02,54,0.00
2006,09,11,02,55,0.00
2006,09,11,02,56,0.00
2006,09,11,02,57,0.00
2006,09,11,02,58,0.00
2006,09,11,02,59,0.00
2006,09,11,03,00,0.00
2006,09,11,03,01,0.00
2006,09,11,03,02,0.00
2006,09,11,03,03,0.00
2006,09,11,03,04,0.00
2006,09,11,03,05,0.00
2006,09,11,03,06,0.00
2006,09,11,03,07,0.00
2006,09,11,03,08,0.00
2006,09,11,03,09,0.00
2006,09,11,03,10,0.00
2006,09,11,03,11,0.00
2006,09,11,03,12,0.00
2006,09,11,03,13,0.00
2006,09,11,03,14,0.00
2006,09,11,03,15,0.00
2006,09,11,03,16,0.00
2006,09,11,03,17,0.00
2006,09,11,03,18,0.00
2006,09,11,03,19,0.00
2006,09,11,03,20,0.00
2006,09,11,03,21,0.00
2006,09,11,03,22,0.00
2006,09,11,03,23,0.00
2006,09,11,03,24,0.00
2006,09,11,03,25,0.00
2006,09,11,03,26,0.00
2006,09,11,03,27,0.00
2006,09,11,03,28,0.00
2006,09,11,03,29,0.00
2006,09,11,03,30,0.00
2006,09,11,03,31,0.00
2006,09,11,03,32,0.00
2006,09,11,03,33,0.00
2006,09,11,03,34,0.00
2006,09,11,03,35,0.00
2006,09,11,03,36,0.00
2006,09,11,03,37,0.00
2006,09,11,03,38,0.00
2006,09,11,03,39,0.00
2006,09,11,03,40,0.00
2006,09,11,03,41,0.00
2006,09,11,03,42,0.00
2006,09,11,03,43,0.00
2006,09,11,03,44,0.00
2006,09,11,03,45,0.00
2006,09,11,03,46,0.00
2006,09,11,03,47,0.00
2006,09,11,03,48,0.00
2006,09,11,03,49,0.00
2006,09,11,03,50,0.00
2006,09,11,03,51,0.00
2006,09,11,03,52,0.00
2006,09,11,03,53,0.00
2006,09,11,03,54,0.00
2006,09,11,03,55,0.00
2006,09,11,03,56,0.00
2006,09,11,03,57,0.00
2006,09,11,03,58,0.00
2006,09,11,03,59,0.00
2006,09,11,04,00,0.00
2006,09,11,04,01,0.00
2006,09,11,04,02,0.00
2006,09,11,04,03,0.00
2006,09,11,04,04,0.00
2006,09,11,04,05,0.00
2006,09,11,04,06,0.00
2006,09,11,04,07,0.00
2006,09,11,04,08,0.00
2006,09,11,04,09,0.00
2006,09,11,04,10,0.00
2006,09,11,04,11,0.00
2006,09,11,04,12,0.00
2006,09,11,04,13,0.00
2006,09,11,04,14,0.00
2006,09,11,04,15,0.00
2006,09,11,04,16,0.00
2006,09,11,04,17,0.00
2006,09,11,04,18,0.00
2006,09,11,04,19,0.00
2006,09,11,04,20,0.00
2006,09,11,04,21,0.00
2006,09,11,04,22,0.00
2006,09,11,04,23,0.00
2006,09,11,04,24,0.00
2006,09,11,04,25,0.00
2006,09,11,04,26,0.00
2006,09,11,04,27,0.00
2006,09,11,04,28,0.00
2006,09,11,04,29,0.00
2006,09,11,04,30,0.00
2006,09,11,04,31,0.00
2006,09,11,04,32,0.00
2006,09,11,04,33,0.00
2006,09,11,04,34,0.00
2006,09,11,04,35,0.00
2006,09,11,04,36,0.00
2006,09,11,04,37,0.00
2006,09,11,04,38,0.00
2006,09,11,04,39,0.00
2006,09,11,04,40,0.00
2006,09,11,04,41,0.00
2006,09,11,04,42,0.00
2006,09,11,04,43,0.00
2006,09,11,04,44,0.00
2006,09,11,04,45,0.00
2006,09,11,04,46,0.00
2006,09,11,04,47,0.00
2006,09,11,04,48,0.00
2006,09,11,04,49,0.00
2006,09,11,04,50,0.00
2006,09,11,04,51,0.00
2006,09,11,04,52,0.00
2006,09,11,04,53,0.00
2006,09,11,04,54,0.00
2006,09,11,04,55,0.00
2006,09,11,04,56,0.00
2006,09,11,04,57,0.00
2006,09,11,04,58,0.00
2006,09,11,04,59,0.00
2006,09,11,05,00,0.00
2006,09,11,05,01,0.00
2006,09,11,05,02,0.00
2006,09,11,05,03,0.00
2006,09,11,05,04,0.00
2006,09,11,05,05,0.00
2006,09,11,05,06,0.00
2006,09,11,05,07,0.00
2006,09,11,05,08,0.00
2006,09,11,05,09,0.00
2006,09,11,05,10,0.00
2006,09,11,05,11,0.00
2006,09,11,05,12,0.00
2006,09,11,05,13,0.00
2006,09,11,05,14,0.00
2006,09,11,05,15,0.00
2006,09,11,05,16,0.00
2006,09,11,05,17,0.00
2006,09,11,05,18,0.00
2006,09,11,05,19,0.00
2006,09,11,05,20,0.00
2006,09,11,05,21,0.00
2006,09,11,05,22,0.00
2006,09,11,05,23,0.00
2006,09,11,05,24,0.00
2006,09,11,05,25,0.00
2006,09,11,05,26,0.00
2006,09,11,05,27,0.00
2006,09,11,05,28,0.00
2006,09,11,05,29,0.00
2006,09,11,05,30,0.00
2006,09,11,05,31,0.00
2006,09,11,05,32,0.00
2006,09,11,05,33,0.00
2006,09,11,05,34,0.00
2006,09,11,05,35,0.00
2006,09,11,05,36,0.00
2006,09,11,05,37,0.00
2006,09,11,05,38,0.00
2006,09,11,05,39,0.00
2006,09,11,05,40,0.00
2006,09,11,05,41,0.00
2006,09,11,05,42,0.00
2006,09,11,05,43,0.00
2006,09,11,05,44,0.00
2006,09,11,05,45,0.00
2006,09,11,05,46,0.00
2006,09,11,05,47,0.00
2006,09,11,05,48,0.00
2006,09,11,05,49,0.00
2006,09,11,05,50,0.00
2006,09,11,05,51,0.00
2006,09,11,05,52,0.00
2006,09,11,05,53,0.00
2006,09,11,05,54,0.00
2006,09,11,05,55,0.00
2006,09,11,05,56,0.00
2006,09,11,05,57,0.00
2006,09,11,05,58,0.00
2006,09,11,05,59,0.00
2006,09,11,06,00,0.00
2006,09,11,06,01,0.00
2006,09,11,06,02,0.00
2006,09,11,06,03,0.00
2006,09,11,06,04,0.00
2006,09,11,06,05,0.00
2006,09,11,06,06,0.00
2006,09,11,06,07,0.00
2006,09,11,06,08,0.00
2006,09,11,06,09,0.00
2006,09,11,06,10,0.00
2006,09,11,06,11,0.00
2006,09,11,06,12,0.00
2006,09,11,06,13,0.00
2006,09,11,06,14,0.00
2006,09,11,06,15,0.00
2006,09,11,06,16,0.00
2006,09,11,06,17,0.00
2006,09,11,06,18,0.00
2006,09,11,06,19,0.00
2006,09,11,06,20,0.00
2006,09,11,06,21,0.00
2006,09,11,06,22,0.00
2006,09,11,06,23,0.00
2006,09,11,06,24,0.00
2006,09,11,06,25,0.00
2006,09,11,06,26,0.00
2006,09,11,06,27,0.00
2006,09,11,06,28,0.00
2006,09,11,06,29,0.00
2006,09,11,06,30,0.00
2006,09,11,06,31,0.00
2006,09,11,06,32,0.00
2006,09,11,06,33,0.00
2006,09,11,06,34,0.00
2006,09,11,06,35,0.00
2006,09,11,06,36,0.00
2006,09,11,06,37,0.00
2006,09,11,06,38,0.00
2006,09,11,06,39,0.00
2006,09,11,06,40,0.00
2006,09,11,06,41,0.00
2006,09,11,06,42,0.00
2006,09,11,06,43,0.00
2006,09,11,06,44,0.00
2006,09,11,06,45,0.00
2006,09,11,06,46,0.20
2006,09,11,06,47,5.00
2006,09,11,06,48,5.00
2006,09,11,06,49,5.00
2006,09,11,06,50,5.00
2006,09,11,06,51,6.50
2006,09,11,06,52,7.00
2006,09,11,06,53,7.00
2006,09,11,06,54,7.00
2006,09,11,06,55,8.00
2006,09,11,06,56,9.00
2006,09,11,06,57,9.00
2006,09,11,06,58,9.00
2006,09,11,06,59,9.40
2006,09,11,07,00,11.00
2006,09,11,07,01,11.00
2006,09,11,07,02,11.00
2006,09,11,07,03,11.00
2006,09,11,07,04,11.90
2006,09,11,07,05,12.00
2006,09,11,07,06,12.00
2006,09,11,07,07,12.00
2006,09,11,07,08,13.30
2006,09,11,07,09,14.00
2006,09,11,07,10,14.00
2006,09,11,07,11,14.00
2006,09,11,07,12,14.00
2006,09,11,07,13,15.10
2006,09,11,07,14,16.00
2006,09,11,07,15,16.00
2006,09,11,07,16,16.00
2006,09,11,07,17,16.00
2006,09,11,07,18,16.80
2006,09,11,07,19,18.00
2006,09,11,07,20,18.00
2006,09,11,07,21,18.00
2006,09,11,07,22,18.20
2006,09,11,07,23,19.00
2006,09,11,07,24,19.80
2006,09,11,07,25,26.40
2006,09,11,07,26,47.70
2006,09,11,07,27,65.10
2006,09,11,07,28,69.20
2006,09,11,07,29,70.00
2006,09,11,07,30,70.00
2006,09,11,07,31,62.40
2006,09,11,07,32,44.50
2006,09,11,07,33,27.40
2006,09,11,07,34,27.50
2006,09,11,07,35,41.90
2006,09,11,07,36,51.00
2006,09,11,07,37,36.50
2006,09,11,07,38,26.50
2006,09,11,07,39,25.00
2006,09,11,07,40,24.00
2006,09,11,07,41,29.40
2006,09,11,07,42,28.80
2006,09,11,07,43,25.40
2006,09,11,07,44,25.00
2006,09,11,07,45,25.10
2006,09,11,07,46,26.00
2006,09,11,07,47,25.60
2006,09,11,07,48,25.50
2006,09,11,07,49,27.30
2006,09,11,07,50,28.00
2006,09,11,07,51,27.80
2006,09,11,07,52,26.00
2006,09,11,07,53,26.00
2006,09,11,07,54,26.00
2006,09,11,07,55,26.00
2006,09,11,07,56,49.80
2006,09,11,07,57,129.40
2006,09,11,07,58,167.60
2006,09,11,07,59,170.40
2006,09,11,08,00,173.20
2006,09,11,08,01,174.00
2006,09,11,08,02,177.60
2006,09,11,08,03,179.40
2006,09,11,08,04,183.50
2006,09,11,08,05,185.40
2006,09,11,08,06,187.20
2006,09,11,08,07,189.50
2006,09,11,08,08,191.70
2006,09,11,08,09,193.00
2006,09,11,08,10,197.60
2006,09,11,08,11,199.40
2006,09,11,08,12,202.50
2006,09,11,08,13,204.00
2006,09,11,08,14,206.80
2006,09,11,08,15,209.40
2006,09,11,08,16,211.90
2006,09,11,08,17,214.90
2006,09,11,08,18,217.30
2006,09,11,08,19,219.50
2006,09,11,08,20,222.90
2006,09,11,08,21,225.40
2006,09,11,08,22,228.10
2006,09,11,08,23,231.00
2006,09,11,08,24,233.40
2006,09,11,08,25,235.60
2006,09,11,08,26,238.80
2006,09,11,08,27,240.00
2006,09,11,08,28,243.40
2006,09,11,08,29,244.00
2006,09,11,08,30,247.90
2006,09,11,08,31,250.80
2006,09,11,08,32,253.10
2006,09,11,08,33,255.50
2006,09,11,08,34,257.40
2006,09,11,08,35,259.10
2006,09,11,08,36,261.30
2006,09,11,08,37,263.70
2006,09,11,08,38,265.10
2006,09,11,08,39,267.00
2006,09,11,08,40,268.60
2006,09,11,08,41,271.50
2006,09,11,08,42,273.40
2006,09,11,08,43,274.00
2006,09,11,08,44,278.00
2006,09,11,08,45,279.50
2006,09,11,08,46,283.90
2006,09,11,08,47,286.20
2006,09,11,08,48,287.70
2006,09,11,08,49,289.70
2006,09,11,08,50,290.60
2006,09,11,08,51,294.90
2006,09,11,08,52,297.80
2006,09,11,08,53,300.20
2006,09,11,08,54,301.70
2006,09,11,08,55,305.50
2006,09,11,08,56,308.20
2006,09,11,08,57,309.60
2006,09,11,08,58,312.90
2006,09,11,08,59,315.60
2006,09,11,09,00,319.20
2006,09,11,09,01,321.90
2006,09,11,09,02,323.40
2006,09,11,09,03,325.70
2006,09,11,09,04,328.50
2006,09,11,09,05,331.30
2006,09,11,09,06,335.20
2006,09,11,09,07,337.90
2006,09,11,09,08,339.50
2006,09,11,09,09,341.70
2006,09,11,09,10,344.50
2006,09,11,09,11,348.70
2006,09,11,09,12,350.00
2006,09,11,09,13,350.40
2006,09,11,09,14,356.10
2006,09,11,09,15,359.40
2006,09,11,09,16,361.10
2006,09,11,09,17,363.30
2006,09,11,09,18,365.70
2006,09,11,09,19,368.90
2006,09,11,09,20,370.20
2006,09,11,09,21,373.40
2006,09,11,09,22,375.10
2006,09,11,09,23,378.80
2006,09,11,09,24,380.90
2006,09,11,09,25,383.30
2006,09,11,09,26,385.60
2006,09,11,09,27,388.30
2006,09,11,09,28,391.10
2006,09,11,09,29,392.00
2006,09,11,09,30,392.20
2006,09,11,09,31,397.30
2006,09,11,09,32,400.20
2006,09,11,09,33,403.50
2006,09,11,09,34,405.20
2006,09,11,09,35,406.00
2006,09,11,09,36,409.80
2006,09,11,09,37,413.00
2006,09,11,09,38,414.40
2006,09,11,09,39,417.50
2006,09,11,09,40,419.20
2006,09,11,09,41,423.20
2006,09,11,09,42,425.00
2006,09,11,09,43,427.40
2006,09,11,09,44,429.60
2006,09,11,09,45,431.50
2006,09,11,09,46,434.60
2006,09,11,09,47,437.60
2006,09,11,09,48,439.00
2006,09,11,09,49,441.50
2006,09,11,09,50,444.10
2006,09,11,09,51,447.00
2006,09,11,09,52,449.30
2006,09,11,09,53,451.70
2006,09,11,09,54,454.00
2006,09,11,09,55,455.50
2006,09,11,09,56,458.50
2006,09,11,09,57,461.50
2006,09,11,09,58,462.00
2006,09,11,09,59,465.40
2006,09,11,10,00,468.40
2006,09,11,10,01,471.00
2006,09,11,10,02,471.80
2006,09,11,10,03,474.10
2006,09,11,10,04,477.10
2006,09,11,10,05,478.00
2006,09,11,10,06,479.90
2006,09,11,10,07,481.50
2006,09,11,10,08,485.80
2006,09,11,10,09,488.20
2006,09,11,10,10,489.80
2006,09,11,10,11,491.80
2006,09,11,10,12,492.60
2006,09,11,10,13,496.30
2006,09,11,10,14,497.90
2006,09,11,10,15,500.20
2006,09,11,10,16,502.40
2006,09,11,10,17,503.10
2006,09,11,10,18,506.30
2006,09,11,10,19,508.60
2006,09,11,10,20,511.00
2006,09,11,10,21,513.90
2006,09,11,10,22,515.00
2006,09,11,10,23,518.80
2006,09,11,10,24,520.00
2006,09,11,10,25,521.50
2006,09,11,10,26,525.00
2006,09,11,10,27,526.60
2006,09,11,10,28,528.60
2006,09,11,10,29,530.80
2006,09,11,10,30,531.00
2006,09,11,10,31,532.00
2006,09,11,10,32,536.20
2006,09,11,10,33,539.40
2006,09,11,10,34,540.80
2006,09,11,10,35,543.40
2006,09,11,10,36,547.00
2006,09,11,10,37,547.40
2006,09,11,10,38,549.10
2006,09,11,10,39,552.70
2006,09,11,10,40,554.80
2006,09,11,10,41,557.30
2006,09,11,10,42,559.00
2006,09,11,10,43,560.60
2006,09,11,10,44,563.60
2006,09,11,10,45,564.00
2006,09,11,10,46,565.70
2006,09,11,10,47,570.00
2006,09,11,10,48,570.90
2006,09,11,10,49,573.80
2006,09,11,10,50,575.00
2006,09,11,10,51,576.50
2006,09,11,10,52,577.80
2006,09,11,10,53,580.30
2006,09,11,10,54,582.00
2006,09,11,10,55,583.40
2006,09,11,10,56,586.20
2006,09,11,10,57,587.00
2006,09,11,10,58,588.80
2006,09,11,10,59,589.50
2006,09,11,11,00,592.60
2006,09,11,11,01,594.00
2006,09,11,11,02,595.30
2006,09,11,11,03,597.60
2006,09,11,11,04,598.90
2006,09,11,11,05,599.40
2006,09,11,11,06,602.50
2006,09,11,11,07,605.00
2006,09,11,11,08,605.70
2006,09,11,11,09,606.00
2006,09,11,11,10,607.90
2006,09,11,11,11,608.40
2006,09,11,11,12,610.70
2006,09,11,11,13,612.00
2006,09,11,11,14,612.00
2006,09,11,11,15,614.50
2006,09,11,11,16,617.00
2006,09,11,11,17,617.50
2006,09,11,11,18,619.00
2006,09,11,11,19,620.10
2006,09,11,11,20,621.00
2006,09,11,11,21,621.00
2006,09,11,11,22,624.20
2006,09,11,11,23,626.60
2006,09,11,11,24,628.00
2006,09,11,11,25,628.50
2006,09,11,11,26,630.40
2006,09,11,11,27,632.70
2006,09,11,11,28,633.00
2006,09,11,11,29,633.60
2006,09,11,11,30,635.00
2006,09,11,11,31,635.60
2006,09,11,11,32,636.00
2006,09,11,11,33,637.70
2006,09,11,11,34,638.40
2006,09,11,11,35,640.60
2006,09,11,11,36,642.50
2006,09,11,11,37,643.00
2006,09,11,11,38,644.50
2006,09,11,11,39,645.10
2006,09,11,11,40,647.00
2006,09,11,11,41,647.60
2006,09,11,11,42,649.50
2006,09,11,11,43,650.00
2006,09,11,11,44,651.50
2006,09,11,11,45,653.60
2006,09,11,11,46,652.00
2006,09,11,11,47,652.70
2006,09,11,11,48,654.90
2006,09,11,11,49,656.60
2006,09,11,11,50,657.00
2006,09,11,11,51,658.90
2006,09,11,11,52,659.00
2006,09,11,11,53,659.80
2006,09,11,11,54,661.00
2006,09,11,11,55,662.30
2006,09,11,11,56,663.00
2006,09,11,11,57,663.00
2006,09,11,11,58,663.30
2006,09,11,11,59,664.00
2006,09,11,12,00,666.10
2006,09,11,12,01,668.00
2006,09,11,12,02,668.00
2006,09,11,12,03,669.90
2006,09,11,12,04,670.30
2006,09,11,12,05,671.00
2006,09,11,12,06,672.10
2006,09,11,12,07,673.00
2006,09,11,12,08,673.00
2006,09,11,12,09,671.30
2006,09,11,12,10,673.00
2006,09,11,12,11,673.80
2006,09,11,12,12,676.20
2006,09,11,12,13,677.00
2006,09,11,12,14,677.10
2006,09,11,12,15,679.00
2006,09,11,12,16,679.30
2006,09,11,12,17,680.00
2006,09,11,12,18,681.30
2006,09,11,12,19,682.00
2006,09,11,12,20,682.20
2006,09,11,12,21,685.40
2006,09,11,12,22,683.40
2006,09,11,12,23,686.00
2006,09,11,12,24,686.00
2006,09,11,12,25,686.80
2006,09,11,12,26,687.00
2006,09,11,12,27,687.50
2006,09,11,12,28,689.00
2006,09,11,12,29,689.00
2006,09,11,12,30,689.00
2006,09,11,12,31,690.60
2006,09,11,12,32,689.30
2006,09,11,12,33,691.00
2006,09,11,12,34,690.20
2006,09,11,12,35,690.10
2006,09,11,12,36,691.00
2006,09,11,12,37,689.40
2006,09,11,12,38,691.00
2006,09,11,12,39,691.50
2006,09,11,12,40,693.00
2006,09,11,12,41,693.50
2006,09,11,12,42,694.00
2006,09,11,12,43,693.20
2006,09,11,12,44,694.00
2006,09,11,12,45,695.00
2006,09,11,12,46,697.10
2006,09,11,12,47,696.00
2006,09,11,12,48,697.40
2006,09,11,12,49,694.40
2006,09,11,12,50,694.60
2006,09,11,12,51,696.90
2006,09,11,12,52,694.00
2006,09,11,12,53,693.40
2006,09,11,12,54,695.10
2006,09,11,12,55,695.90
2006,09,11,12,56,694.40
2006,09,11,12,57,696.00
2006,09,11,12,58,696.00
2006,09,11,12,59,697.30
2006,09,11,13,00,696.50
2006,09,11,13,01,697.80
2006,09,11,13,02,696.00
2006,09,11,13,03,696.70
2006,09,11,13,04,697.10
2006,09,11,13,05,697.20
2006,09,11,13,06,696.40
2006,09,11,13,07,696.00
2006,09,11,13,08,696.00
2006,09,11,13,09,696.70
2006,09,11,13,10,698.00
2006,09,11,13,11,696.70
2006,09,11,13,12,696.00
2006,09,11,13,13,696.00
2006,09,11,13,14,696.00
2006,09,11,13,15,696.00
2006,09,11,13,16,696.00
2006,09,11,13,17,696.00
2006,09,11,13,18,696.00
2006,09,11,13,19,696.00
2006,09,11,13,20,695.50
2006,09,11,13,21,694.80
2006,09,11,13,22,694.90
2006,09,11,13,23,693.30
2006,09,11,13,24,693.00
2006,09,11,13,25,694.00
2006,09,11,13,26,694.00
2006,09,11,13,27,694.00
2006,09,11,13,28,693.40
2006,09,11,13,29,693.70
2006,09,11,13,30,695.70
2006,09,11,13,31,693.20
2006,09,11,13,32,693.00
2006,09,11,13,33,692.20
2006,09,11,13,34,691.00
2006,09,11,13,35,691.00
2006,09,11,13,36,691.00
2006,09,11,13,37,691.40
2006,09,11,13,38,692.40
2006,09,11,13,39,691.00
2006,09,11,13,40,691.00
2006,09,11,13,41,691.00
2006,09,11,13,42,687.40
2006,09,11,13,43,687.40
2006,09,11,13,44,688.40
2006,09,11,13,45,687.00
2006,09,11,13,46,688.30
2006,09,11,13,47,689.00
2006,09,11,13,48,687.10
2006,09,11,13,49,686.20
2006,09,11,13,50,687.00
2006,09,11,13,51,686.50
2006,09,11,13,52,684.70
2006,09,11,13,53,684.00
2006,09,11,13,54,683.80
2006,09,11,13,55,681.60
2006,09,11,13,56,680.70
2006,09,11,13,57,682.00
2006,09,11,13,58,682.00
2006,09,11,13,59,683.70
2006,09,11,14,00,682.30
2006,09,11,14,01,683.50
2006,09,11,14,02,682.80
2006,09,11,14,03,684.00
2006,09,11,14,04,682.70
2006,09,11,14,05,682.00
2006,09,11,14,06,679.70
2006,09,11,14,07,677.00
2006,09,11,14,08,677.00
2006,09,11,14,09,675.90
2006,09,11,14,10,673.60
2006,09,11,14,11,671.30
2006,09,11,14,12,670.20
2006,09,11,14,13,665.40
2006,09,11,14,14,664.90
2006,09,11,14,15,664.80
2006,09,11,14,16,661.80
2006,09,11,14,17,662.70
2006,09,11,14,18,660.60
2006,09,11,14,19,659.00
2006,09,11,14,20,658.10
2006,09,11,14,21,657.00
2006,09,11,14,22,656.20
2006,09,11,14,23,655.90
2006,09,11,14,24,654.00
2006,09,11,14,25,653.40
2006,09,11,14,26,652.00
2006,09,11,14,27,650.80
2006,09,11,14,28,649.20
2006,09,11,14,29,647.20
2006,09,11,14,30,647.00
2006,09,11,14,31,646.40
2006,09,11,14,32,643.70
2006,09,11,14,33,642.00
2006,09,11,14,34,642.00
2006,09,11,14,35,641.90
2006,09,11,14,36,639.50
2006,09,11,14,37,638.00
2006,09,11,14,38,637.00
2006,09,11,14,39,635.30
2006,09,11,14,40,633.40
2006,09,11,14,41,631.00
2006,09,11,14,42,631.00
2006,09,11,14,43,630.20
2006,09,11,14,44,628.50
2006,09,11,14,45,626.60
2006,09,11,14,46,624.30
2006,09,11,14,47,624.00
2006,09,11,14,48,623.40
2006,09,11,14,49,621.60
2006,09,11,14,50,619.90
2006,09,11,14,51,617.60
2006,09,11,14,52,617.00
2006,09,11,14,53,617.00
2006,09,11,14,54,616.40
2006,09,11,14,55,614.20
2006,09,11,14,56,612.40
2006,09,11,14,57,610.50
2006,09,11,14,58,608.30
2006,09,11,14,59,607.70
2006,09,11,15,00,606.00
2006,09,11,15,01,605.50
2006,09,11,15,02,605.00
2006,09,11,15,03,603.40
2006,09,11,15,04,599.50
2006,09,11,15,05,600.60
2006,09,11,15,06,599.00
2006,09,11,15,07,597.60
2006,09,11,15,08,596.00
2006,09,11,15,09,593.00
2006,09,11,15,10,591.10
2006,09,11,15,11,591.00
2006,09,11,15,12,589.60
2006,09,11,15,13,587.00
2006,09,11,15,14,585.70
2006,09,11,15,15,584.20
2006,09,11,15,16,583.90
2006,09,11,15,17,581.60
2006,09,11,15,18,579.30
2006,09,11,15,19,577.50
2006,09,11,15,20,577.00
2006,09,11,15,21,577.00
2006,09,11,15,22,572.80
2006,09,11,15,23,571.00
2006,09,11,15,24,569.90
2006,09,11,15,25,567.00
2006,09,11,15,26,564.70
2006,09,11,15,27,563.20
2006,09,11,15,28,563.00
2006,09,11,15,29,561.80
2006,09,11,15,30,558.20
2006,09,11,15,31,555.90
2006,09,11,15,32,555.00
2006,09,11,15,33,554.20
2006,09,11,15,34,552.10
2006,09,11,15,35,550.80
2006,09,11,15,36,548.00
2006,09,11,15,37,547.40
2006,09,11,15,38,545.50
2006,09,11,15,39,543.20
2006,09,11,15,40,540.80
2006,09,11,15,41,539.40
2006,09,11,15,42,538.00
2006,09,11,15,43,536.80
2006,09,11,15,44,534.50
2006,09,11,15,45,533.00
2006,09,11,15,46,531.00
2006,09,11,15,47,529.70
2006,09,11,15,48,527.00
2006,09,11,15,49,526.40
2006,09,11,15,50,524.50
2006,09,11,15,51,522.00
2006,09,11,15,52,520.00
2006,09,11,15,53,519.70
2006,09,11,15,54,516.90
2006,09,11,15,55,513.70
2006,09,11,15,56,512.20
2006,09,11,15,57,509.90
2006,09,11,15,58,507.50
2006,09,11,15,59,505.30
2006,09,11,16,00,504.00
2006,09,11,16,01,503.30
2006,09,11,16,02,499.80
2006,09,11,16,03,498.80
2006,09,11,16,04,496.70
2006,09,11,16,05,495.20
2006,09,11,16,06,492.90
2006,09,11,16,07,490.70
2006,09,11,16,08,489.10
2006,09,11,16,09,485.00
2006,09,11,16,10,484.40
2006,09,11,16,11,482.60
2006,09,11,16,12,479.70
2006,09,11,16,13,476.60
2006,09,11,16,14,475.20
2006,09,11,16,15,472.70
2006,09,11,16,16,470.50
2006,09,11,16,17,468.60
2006,09,11,16,18,466.90
2006,09,11,16,19,464.60
2006,09,11,16,20,462.20
2006,09,11,16,21,460.70
2006,09,11,16,22,458.40
2006,09,11,16,23,456.10
2006,09,11,16,24,453.30
2006,09,11,16,25,450.50
2006,09,11,16,26,448.20
2006,09,11,16,27,445.80
2006,09,11,16,28,444.40
2006,09,11,16,29,443.00
2006,09,11,16,30,440.00
2006,09,11,16,31,436.40
2006,09,11,16,32,434.10
2006,09,11,16,33,431.80
2006,09,11,16,34,430.30
2006,09,11,16,35,428.00
2006,09,11,16,36,425.70
2006,09,11,16,37,424.20
2006,09,11,16,38,422.20
2006,09,11,16,39,420.80
2006,09,11,16,40,416.30
2006,09,11,16,41,413.90
2006,09,11,16,42,410.90
2006,09,11,16,43,408.40
2006,09,11,16,44,405.90
2006,09,11,16,45,403.80
2006,09,11,16,46,402.20
2006,09,11,16,47,399.90
2006,09,11,16,48,399.00
2006,09,11,16,49,394.80
2006,09,11,16,50,391.90
2006,09,11,16,51,389.10
2006,09,11,16,52,386.10
2006,09,11,16,53,383.80
2006,09,11,16,54,381.60
2006,09,11,16,55,381.00
2006,09,11,16,56,375.70
2006,09,11,16,57,373.70
2006,09,11,16,58,372.20
2006,09,11,16,59,368.60
2006,09,11,17,00,366.30
2006,09,11,17,01,364.30
2006,09,11,17,02,361.50
2006,09,11,17,03,358.40
2006,09,11,17,04,357.00
2006,09,11,17,05,354.00
2006,09,11,17,06,350.50
2006,09,11,17,07,348.10
2006,09,11,17,08,345.80
2006,09,11,17,09,343.60
2006,09,11,17,10,340.10
2006,09,11,17,11,338.40
2006,09,11,17,12,336.40
2006,09,11,17,13,335.70